Current weather by "City, St" or "zip code"  
 

Current Conditions: Arlington Municipal Airport, WA

Partly Cloudy


57.0 F

Last Updated on Oct 29 2020, 3:56 pm PDT
Humidity: 69%
Wind Speed: S 9.2 mph
Barometer 30.11 in
Dewpoint: 46.9 F
Visibility: 10.00 mi
Precip: --
Heat Index: NA
Wind Chill: 55 F
Current conditions at:

Arlington Municipal Airport, WA (KAWO)

Lat: 48.1585 Lon: 122.15909

Local Radar Image active severe weather and emergency alerts image image weather storm and storm spotter reports image weather observation monitoring service image
Local
Radar
Active
Alerts
Storm Reports Obs
Monitoring

Sign-up For Email & Text Message Weather Alert Notification Services



Advertise Here

Observation History for Arlington Municipal Airport, WA


Time Wind
(mph)
Vis
(mi)
Weather Precip (in) Temperature (F) Relative
Humidity
Wind
Chill
(F)
Heat
Index
(F)
Pressure
Air Dwpt altimeter
(in)
sea level
(mb)
Rmks
3:56 pm PDT S 9.2 10.00 Partly Cloudy -- 57.0 46.9 69% 55 NA 30.11 1020.1
2:56 pm PDT SE 8.1 10.00 Fair -- 59.0 48.9 69% 58 NA 30.13 1020.8
1:56 pm PDT S 8.1 10.00 Overcast -- 57.0 48.9 74% 55 NA 30.16 1021.6
12:56 pm PDT SE 9.2 10.00 Overcast -- 56.0 50.0 81% 54 NA 30.18 1022.3
11:56 am PDT SE 4.6 10.00 Overcast -- 55.0 50.0 83% 54 NA 30.20 1023.0
10:56 am PDT S 3.5 10.00 Overcast -- 55.0 51.1 87% NA NA 30.21 1023.4
9:56 am PDT S 4.6 10.00 Overcast -- 53.0 51.1 93% 52 NA 30.21 1023.4
8:56 am PDT SE 4.6 10.00 Overcast -- 52.0 51.1 97% 51 NA 30.20 1023.2
7:56 am PDT SE 5.8 10.00 Overcast -- 52.0 50.0 93% 50 NA 30.20 1023.1
6:56 am PDT N 0.0 10.00 Overcast -- 52.0 50.0 93% NA NA 30.21 1023.3
5:56 am PDT N 0.0 10.00 Overcast Trace 52.0 50.0 93% NA NA 30.20 1023.2
4:56 am PDT N 0.0 9.00 Overcast -- 50.0 48.9 96% NA NA 30.20 1023.0
3:56 am PDT N 0.0 10.00 Overcast -- 50.0 48.9 96% NA NA 30.20 1023.1
2:56 am PDT N 0.0 10.00 Overcast -- 51.0 48.9 92% NA NA 30.20 1023.0
1:56 am PDT N 0.0 10.00 Overcast -- 51.0 48.9 92% NA NA 30.20 1023.1
12:56 am PDT N 0.0 10.00 Overcast -- 51.0 48.9 92% NA NA 30.19 1022.9
10:56 pm PDT N 0.0 10.00 Overcast -- 50.0 48.0 93% NA NA 30.19 1022.9
9:56 pm PDT N 4.6 10.00 Overcast -- 51.0 48.0 89% 50 NA 30.19 1022.8
8:56 pm PDT N 0.0 10.00 Overcast -- 50.0 48.0 93% NA NA 30.19 1022.7
7:56 pm PDT E 5.8 10.00 Overcast -- 50.0 48.0 93% 48 NA 30.18 1022.4
6:56 pm PDT S 3.5 10.00 Fair -- 48.0 46.0 93% NA NA 30.18 1022.4
5:56 pm PDT S 6.9 10.00 Fair -- 51.0 46.9 86% 48 NA 30.17 1022.1
4:56 pm PDT S 8.1 10.00 Fair -- 55.0 48.9 80% 53 NA 30.17 1022.2

Regional Weather Observation


Burlington/Mount Vernon, Skagit Regional Airport, WA (KBVS)

Overcast
59.0 F

Whidbey Island Naval Air Station - Ault Field, WA (KNUW)

Overcast
59.0 F

Bellingham, Bellingham International Airport, WA (KBLI)

Overcast
57.0 F

Eastsound, Orcas Island Airport, WA (KORS)

Overcast
57.0 F

Friday Harbor Airport, WA (KFHR)

Overcast
55.0 F

Everett Snohomish County, WA (KPAE)

Partly Cloudy
56.0 F